Regional Weather Roundup
Issued by NWS

Home | Current Version | Previous Version | Text Only | Print | Product List | Glossary Off
Versions: 1 2 3 4 5 6 7 8 9 10 11 12 13 14 15 16 17 18 19 20 21 22 23 24 25 26 27 28 29 30 31 32 33 34 35 36 37 38 39 40 41 42 43 44 45 46 47 48 49 50

000
ASUS43 KMKX 251310
RWRWI

WISCONSIN REGIONAL WEATHER ROUNDUP
NATIONAL WEATHER SERVICE MILWAUKEE/SULLIVAN WI
800 AM CDT FRI JUL 25 2014

NOTE: "FAIR" INDICATES FEW OR NO CLOUDS BELOW 12,000 FEET WITH NO
SIGNIFICANT WEATHER AND/OR OBSTRUCTIONS TO VISIBILITY.

WIZ001-002-006>008-014>016-023>028-251400-
NORTHWEST WISCONSIN

CITY           SKY/WX    TMP DP  RH WIND       PRES   REMARKS
SUPERIOR ARPT  CLOUDY    58  56  94 CALM      29.81F
ASHLAND        CLOUDY    66  61  84 VRB6      29.84F
HAYWARD        CLOUDY    64  61  90 S9        29.84F
SIREN          LGT RAIN  64  62  94 SW3       29.90R
RICE LAKE      CLOUDY    65  58  77 S6        29.88R
LADYSMITH      CLOUDY    64  59  83 SE7       29.88F
EAU CLAIRE     LGT RAIN  65  61  87 VRB3      29.84F
MENOMONIE      RAIN      64  61  90 SW6       29.88R
NEW RICHMOND   RAIN      63  63  98 S6        29.86R
OSCEOLA        RAIN      65  64  99 CALM      29.88R
$$

WIZ003>005-009-010-017-018-251400-
NORTH CENTRAL WISCONSIN

CITY           SKY/WX    TMP DP  RH WIND       PRES   REMARKS
WOODRUFF       LGT RAIN  62  59  90 S10       29.94S
RHINELANDER    CLOUDY    61  59  93 S7        29.97S
EAGLE RIVER    LGT RAIN  61  60  97 SW3       29.95S
LAND O LAKES   LGT RAIN  64  59  85 SW7       29.95S
PHILLIPS       CLOUDY    63  59  86 S8        29.90F
TOMAHAWK       LGT RAIN  60  58  93 CALM      29.95F
MEDFORD        CLOUDY    62  58  88 SE9       29.92F
MERRILL        CLOUDY    62  60  94 S6        29.95F
$$

WIZ029-030-035-036-043>047-251400-
CENTRAL WISCONSIN

CITY           SKY/WX    TMP DP  RH WIND       PRES   REMARKS
WAUSAU         CLOUDY    62  59  90 SE6       29.95F
MOSINEE        CLOUDY    61  61 100 S8        29.97
MARSHFIELD     CLOUDY    63  58  83 S12       29.92F
STEVENS POINT  CLOUDY    60  56  89 S10       29.97F
WAUPACA        CLOUDY    64  60  86 S5        29.99F
WAUTOMA        CLOUDY    62  59  90 S5        30.01S
WISC RAPIDS    CLOUDY    62  58  86 S8        29.98F
CAMP DOUGLAS   CLOUDY    64  59  82 S13G21    29.93F
$$

WIZ011>013-019>022-031-037>040-048>050-251400-
NORTHEAST WISCONSIN

CITY           SKY/WX    TMP DP  RH WIND       PRES   REMARKS
ANTIGO         LGT RAIN  60  58  95 S13       29.96F
STURGEON BAY   CLOUDY    64  54  68 SW10G17   29.99F
GREEN BAY      PTSUNNY   67  56  67 SW13      29.99F
MANITOWOC      PTSUNNY   68  53  58 W9        30.01F
APPLETON       PTSUNNY   63  55  77 SW10      30.01F
CLINTONVILLE   CLOUDY    61  55  82 S8        29.97F
OSHKOSH        CLOUDY    63  54  72 SW10      30.00F
$$

WIZ032>034-041-042-053>061-251400-
SOUTHWEST WISCONSIN

CITY           SKY/WX    TMP DP  RH WIND       PRES   REMARKS
LA CROSSE      CLOUDY    65  61  87 S20G30    29.84F
SPARTA         RAIN      62  58  84 S15G24    29.88F
VIROQUA        FAIR      61  61  99 S9G17     29.94F
BOSCOBEL       CLOUDY    64  59  83 S3        29.98F
PRAIRIE DU CHI CLOUDY    65  56  73 SE6       29.97F
PLATTEVILLE    FAIR      62  59  89 S9        30.02F
$$

WIZ056-057-062-063-064-067-068-251400-
SOUTH CENTRAL WISCONSIN

CITY           SKY/WX    TMP DP  RH WIND       PRES   REMARKS
BARABOO/DELLS  CLOUDY    64  54  70 S14       29.99F
LONE ROCK      CLOUDY    67  58  72 SE6       30.00F
WATERTOWN      CLOUDY    62  54  73 S7        30.01F
MADISON        CLOUDY    65  55  70 SW8       30.03F
MIDDLETON      FAIR      64  55  71 SW8       30.02F
MONROE         RAIN      59  55  88 CALM      30.04S
JANESVILLE     CLOUDY    63  52  67 S8        30.05F
$$

WIZ051-052-058>065-066-070>072-251400-
SOUTHEAST WISCONSIN

CITY           SKY/WX    TMP DP  RH WIND       PRES   REMARKS
MILWAUKEE      CLOUDY    63  50  62 SW10      30.04F
WAUKESHA       MOSUNNY   61  50  67 SW6       30.06F
MILWAUKEE/TIMM MOSUNNY   63  48  59 SW9       30.06F
RACINE         CLOUDY    63  50  62 SW12      30.07F
BURLINGTON     CLOUDY    60  53  79 S7        30.05F
KENOSHA        CLOUDY    63  52  67 SW6       30.07F
FOND DU LAC    LGT RAIN  62  53  72 SW3       30.02F
SHEBOYGAN      CLOUDY    64  53  67 SW8       30.02F
WEST BEND      CLOUDY    61  50  67 S7        30.03F
JUNEAU         CLOUDY    60  51  72 SE7       30.03F
$$

LSZ147-162-251400-
LAKE SUPERIOR

STATION/POSITION TIME  TEMP    WIND        PRES    WAVE
                       AIR SEA DIR/SP/G            HT/PER
                 (UTC) (F)     (DEG/KT/KT) (MB)    (FT/S)
$$

LMZ867-665-643>646-251400-
LAKE MICHIGAN

STATION/POSITION TIME  TEMP    WIND        PRES    WAVE
                       AIR SEA DIR/SP/G            HT/PER
                 (UTC) (F)     (DEG/KT/KT) (MB)    (FT/S)
$$

TC  - TEMPERATURE IN CELSIUS
VSB - VISIBILITY IN STATUTE MILES
WCI - WIND CHILL INDEX
HX  - HEAT INDEX



USA.gov is the U.S. government's official web portal to all federal, state and local government web resources and services.